Showing default

FALCONSAT-6, 43815

Orbit data source: Space-Track

FALCONSAT-6, 43815 is a payload satellite owned by USAF SMC (US) in SSO that was launched on Mon, 03 Dec 2018 UTC via an FALCON 9 launch vehicle from the Air Force Western Test Range (AFWTR). Payload-class satellites include a variety of spacecraft equipped with specific instruments for various scientific and technological missions. These include communications satellites like Starlink; space stations such as the ISS; scientific satellites like the Hubble; Earth observation satellites from companies like Planet Labs, Umbra, and HawkEye 360; GPS; miniature CubeSats for education and research; and military/defense satellites.

Loading next visibility...
Identifier
43815, 2018-099BK
Orbit
SSO
Country
Flag of USUS
Related business
Manufacturer
USAF Academy
Mission
Operational Defense Technology
Bus & Motor
FALCONSAT, Unknown motor
Mass
181 kg wet, 181 kg dry
Launch date (UTC)
2018-12-03 (7 years ago)
Launch vehicle
FALCON 9
Launch site
Air Force Western Test Range (AFWTR)
Object type
Payload
Rocket body
Debris
Shape & HBR
Box + 1 Ant, 2.0 m
Radar Cross Section
0.551 m², Medium (>0.1 m² and < 1m²)

Expand to show TLE details & history
Last TLE update: 8 hours ago

TLE from 8 hours ago
0 FALCONSAT-6
1 43815U 18099BK  25291.99991338  .00006084  00000-0  24869-3 0  9998
2 43815  97.4078   5.6219 0018462  75.8175  97.4366 15.24572603376944
Epoch: 2025-10-18T23:59Z
TLE epoch observation values (Epoch: 2025-10-18T23:59:52.516Z)
Latitude
6.40029°
Longitude
158.76125°
Altitude
496.226 km
Speed
7.616 km/s
True Right ascension
12h 25m 48s
True Declination
6° 21' 39"
Sunlit
Object was in daylight at epoch
Visualization orbit readout
Latitude
Unknown
Longitude
Unknown
Altitude
Unknown
Speed
Unknown
Apparent Right ascension
Unknown
Apparent Declination
Unknown
Sunlit
N/A
Visualization observer readout
Local Sidereal Time
03:05:08
Azimuth
Unknown
Elevation
Unknown
Doppler factor
Unknown
Orbital elements
Apogee altitude
501.707 km
Perigee altitude
476.351 km
Semi-major axis
6,867.166 km
Eccentricity
0.00185
Inclination
97.4078°
RAAN
5.6219°
Arg. of periapsis
75.8175°
True anomaly
97.64632°
Mean anomaly
97.4366°
Eccentric anomaly
97.54146°
Mean motion
3.81397 °/min
Orbital period
94.39 mins
BSTAR
0.00024869
Loading maneuver chart data...
Computing Atmospheric mass density...
Loading historical data...
Loading historical data...
Loading historical data...
Loading historical data...
Loading historical data...
Loading historical data...
Loading historical data...

Documentation

Showing up to 5 results
|